Regional Weather Roundup
Issued by NWS

Home | Current Version | Previous Version | Text Only | Print | Product List | Glossary Off
Versions: 1 2 3 4 5 6 7 8 9 10 11 12 13 14 15 16 17 18 19 20 21 22 23 24 25 26 27 28 29 30 31 32 33 34 35 36 37 38 39 40 41 42 43 44 45 46 47 48 49 50

000
ASUS43 KMPX 072210
RWRMN
WEATHER ROUNDUP FOR MINNESOTA
NATIONAL WEATHER SERVICE TWIN CITIES/CHANHASSEN MN
500 PM CDT TUE JUL 07 2015


NOTE: "FAIR" INDICATES FEW OR NO CLOUDS BELOW 12,000 FEET WITH NO
SIGNIFICANT WEATHER AND/OR OBSTRUCTIONS TO VISIBILITY. N/A MEANS
CURRENT SKY AND/OR WEATHER CONDITIONS ARE NOT AVAILABLE.

MNZ060>063-068>070-072300-
   Twin Cities Metro

CITY           SKY/WX    TMP DP  RH WIND       PRES   REMARKS
TWIN CITIES    PTSUNNY   72  48  42 N8        30.12F
ST PAUL        MOSUNNY   70  48  45 NE3       30.13F
CRYSTAL        MOSUNNY   73  47  39 VRB7      30.11F
BLAINE         PTSUNNY   72  48  43 NE6       30.13F
LAKEVILLE      MOSUNNY   66  50  55 E5        30.13F
EDEN PRAIRIE   MOSUNNY   72  47  40 NE7       30.11F
SOUTH ST PAUL  PTSUNNY   69  46  44 E8        30.12F
LAKE ELMO      PTSUNNY   68  50  52 NE5       30.14F
$$
MNZ001>005-007-008-013>017-022>024-027-028-072300-
   Northwest Minnesota

CITY           SKY/WX    TMP DP  RH WIND       PRES   REMARKS
BEMIDJI        SUNNY     71  46  41 SW8       30.11S
HALLOCK        SUNNY     72  46  40 SW10      30.06F
ROSEAU         SUNNY     72  52  49 SW10      30.08F
WARROAD        SUNNY     70  52  52 SW9G17    30.08F
THIEF RVR FALL SUNNY     70  46  43 S10       30.11S
CROOKSTON      SUNNY     72  46  40 SW10G16   30.10F
FOSSTON        SUNNY     72  48  43 SW7       30.12S
DETROIT LAKES  SUNNY     70  37  30 S7        30.14S
MOORHEAD       SUNNY     72  45  37 S12       30.12F
PARK RAPIDS    SUNNY     72  42  34 VRB6      30.12F
MAHNOMEN       FAIR      70  43  38 SW8       30.12S
$$
MNZ006-009>011-018-025>026-072300-
   North Central Minnesota

CITY           SKY/WX    TMP DP  RH WIND       PRES   REMARKS
BAUDETTE       SUNNY     73  46  38 W9        30.07F
FLAG ISLAND    SUNNY     70  52  52 S12G17    30.04F
INTL FALLS     SUNNY     72  45  37 NW7       30.08F
WASKISH        SUNNY     70  48  46 SW9       30.10F
BIG FORK       SUNNY     72  45  37 CALM      30.10F
LONGVILLE      SUNNY     70  37  30 W3        30.13S
GRAND RAPIDS   SUNNY     70  41  35 W9        30.12S
CRANE LAKE     SUNNY     70  34  26 W5        30.10F
COOK           SUNNY     72  37  28 W6        30.10S
WALKER         FAIR      70  45  40 S7        30.11F
$$
MNZ012-019>021-037-072300-
   Northeast Minnesota

CITY           SKY/WX    TMP DP  RH WIND       PRES   REMARKS
DULUTH         MOSUNNY   71  44  37 W6        30.10F
ELY            SUNNY     70  41  35 W5        30.09S
HIBBING        SUNNY     71  42  35 CALM      30.10F
EVELETH        SUNNY     72  43  35 W3        30.11F
DULUTH HARBOR  SUNNY     73  46  38 E8        30.10S
TWO HARBORS    SUNNY     73  54  49 S8        30.08S
SILVER BAY     SUNNY     70  48  46 S10       30.08S
GRAND MARAIS     N/A     59  48  67 W7        30.09R
G MARAIS ARPRT SUNNY     66  41  39 S3        30.10S
$$
MNZ029>031-032-039>041-046>048-054>057-064-072300-
   West Central Minnesota

CITY           SKY/WX    TMP DP  RH WIND       PRES   REMARKS
FERGUS FALLS   SUNNY     70  45  40 CALM      30.13S
WHEATON        SUNNY     68  46  45 S7        30.15F
MORRIS         MOSUNNY   70  48  46 S6        30.14S
ALEXANDRIA     SUNNY     69  46  43 NW5       30.15F
ELBOW LAKE     FAIR      69  47  45 SW6       30.14S
WADENA         SUNNY     70  43  37 S6        30.12F
GLENWOOD       SUNNY     70  45  40 CALM      30.15S
APPLETON       MOSUNNY   70  45  40 S5        30.14F
BENSON         MOSUNNY   72  45  37 CALM      30.14F
ORTONVILLE     SUNNY     70  46  43 S3        30.14F
MADISON        MOSUNNY   66  46  48 E3        30.15S
WILLMAR        FAIR      70  46  43 NE3       30.16S
$$
MNZ033>034-036-042>043-049>051-058-059-072300-
   Central Minnesota

CITY           SKY/WX    TMP DP  RH WIND       PRES   REMARKS
ST CLOUD       MOSUNNY   70  44  39 CALM      30.13F
SAUK CENTRE    FAIR      69  48  46 SW5       30.14F HAZE
PAYNESVILLE    MOSUNNY   67  45  46 E6        30.15F
AITKIN         SUNNY     72  45  37 W3        30.11F
PINE RIVER     SUNNY     70  45  40 CALM      30.15S
BRAINERD       SUNNY     70  42  36 N3        30.13F
STAPLES        SUNNY     70  39  32 S3        30.13S
LONG PRAIRIE   FAIR      68  45  42 CALM      30.14F
LITTLE FALLS   SUNNY     70  41  35 SE5       30.13F
LITCHFIELD     PTSUNNY   72  48  43 E6        30.15F
BUFFALO        SUNNY     69  42  38 CALM      30.15S
MAPLE LAKE     PTSUNNY   70  49  47 NE3       30.15S
$$
MNZ037-044-045-052-053-072300-
   East Central Minnesota

CITY           SKY/WX    TMP DP  RH WIND       PRES   REMARKS
PRINCETON      PTSUNNY   72  46  40 CALM      30.14S
MORA           SUNNY     70  46  43 CALM      30.14F
CAMBRIDGE      SUNNY     72  52  49 CALM      30.12S
RUSH CITY      SUNNY     69  48  47 N5        30.13F
MOOSE LAKE     MOSUNNY   70  43  37 CALM      30.10F
HINCKLEY       FAIR      70  46  43 CALM      30.13S
CLOQUET        SUNNY     70  39  32 N5        30.11S
MCGREGOR       SUNNY     70  43  37 SW5       30.13S
$$
MNZ071>073-080-081-089-090-097-098-072300-
   Southwest Minnesota

CITY           SKY/WX    TMP DP  RH WIND       PRES   REMARKS
MONTEVIDEO     PTSUNNY   75  50  41 CALM      30.17S
GRANITE FALLS  MOSUNNY   69  47  45 CALM      30.16F
CANBY          SUNNY     67  47  48 S3        30.16F
MARSHALL       SUNNY     66  45  45 E8        30.14F
REDWOOD FALLS  SUNNY     69  47  45 NE6       30.15F
OLIVIA         MOSUNNY   68  45  42 E6        30.14F
PIPESTONE      SUNNY     66  46  48 NE5       30.15F
WINDOM         MOSUNNY   66  48  52 N8        30.15S
WORTHINGTON    SUNNY     66  48  52 NE12      30.15S
JACKSON        MOSUNNY   68  50  52 N7        30.15S
TRACY          SUNNY     68  49  51 E7        30.15F
SLAYTON        SUNNY     66  47  49 CALM      30.16F
$$
MNZ065>067-074>077-082>085-091>093-072300-
   South Central Minnesota

CITY           SKY/WX    TMP DP  RH WIND       PRES   REMARKS
MANKATO        SUNNY     68  46  45 NE9       30.13F
NEW ULM        SUNNY     68  46  45 N6        30.14F
ST JAMES         N/A     68  50  52 NE7       30.15S
FAIRMONT       SUNNY     66  46  48 NE8       30.13F
GLENCOE        MOSUNNY   68  50  52 CALM      30.14F
FARIBAULT      SUNNY     68  48  49 N3        30.14S
OWATONNA       SUNNY     66  48  52 N6        30.13F
WASECA         MOSUNNY   66  50  55 N8        30.14F
ALBERT LEA     SUNNY     68  48  49 NE12      30.12F
$$
MNZ078>079-086>088-094>096-072300-
   Southeast Minnesota

CITY           SKY/WX    TMP DP  RH WIND       PRES   REMARKS
ROCHESTER      SUNNY     68  49  50 NE13      30.12F
RED WING       SUNNY     70  46  43 N6        30.11F
STANTON        MOSUNNY   70  48  46 N8        30.12F
DODGE CENTER   MOSUNNY   66  50  55 N9        30.12F
WINONA         MOSUNNY   70  46  43 CALM      30.11F
AUSTIN         SUNNY     68  48  49 NE10      30.11F
PRESTON        SUNNY     65  48  55 NE8G18    30.12S
$$
ABBREVIATIONS USED IN REMARKS
   TC - TEMPERATURES IN CELSIUS
  WCI - WIND CHILL INDEX
   HX - HEAT INDEX
  VSB - VISIBILITY
$$


USA.gov is the U.S. government's official web portal to all federal, state and local government web resources and services.